User: anonymous   Login
Location: NJAA Observatory
(40.6819°N, 74.8979°W)
Time: 18:26:43
(UTC-05:00)
Language:

Meteor 1-28 Rocket - Orbit

View from above orbital plane
View from above orbital plane
View from above satellite
View from above satellite

Ground track
Ground track

The orbit data is extracted from the following two-line orbital elements,

1 10114U 77057B   17018.90829279 +.00000363 +00000-0 +21751-4 0  9998
2 10114 097.1963 208.7396 0015600 117.9778 242.3037 15.16570498160724
Epoch (UTC): 18 January 2017 21:47:56
Eccentricity: 0.0015600
inclination: 97.1963°
perigee height: 505 km
apogee height: 527 km
right ascension of ascending node: 208.7396°
argument of perigee: 117.9778°
revolutions per day: 15.16570498
mean anomaly at epoch: 242.3037°
orbit number at epoch: 16072

The dashed part of the orbit path shows where the satellite is in the earth's shadow,  

DLR